Location: Hamburg
(53.5500°N, 10.0000°E)
Time: 07:24:51
(UTC+02:00)

Daily predictions for brighter satellites

Satellite Brightness Start Highest point End
(mag) Time Altitude Azimuth Time Altitude Azimuth Time Altitude Azimuth
NOSS 3-2 (C) 4.3 22:32:59 10° NW 22:40:15 66° SW 22:48:17 10° SSE
Meteor 1-21 Rocket 4.5 22:36:46 10° S 22:42:30 59° E 22:48:09 10° NNE
Cosmos 494 Rocket 4.1 22:41:55 10° SSW 22:47:12 88° WNW 22:52:31 10° NNE
Cosmos 2221 2.6 22:44:24 10° N 22:48:46 77° ENE 22:53:04 10° SSE
Cosmos 1844 3.8 22:43:22 10° SSW 22:49:07 87° ESE 22:54:58 10° NNE
Spot 1 4.3 22:48:22 10° SSE 22:52:49 73° ENE 22:57:35 10° NNW
SPOT 1/Viking Rocket 3.8 22:48:25 10° S 22:53:32 70° WSW 22:58:42 10° NNW
H-2A R/B 3.4 22:48:46 10° SSW 22:53:45 39° W 22:58:51 10° NNW
Landsat 7 4.0 22:51:06 10° SSE 22:55:51 78° WSW 23:00:39 10° NNW
ATLAS 5 CENTAUR R/B 2.8 22:52:10 10° S 22:55:53 25° ESE 22:59:56 10° ENE
Okean 3 Rocket 4.3 22:58:14 10° SSE 23:02:15 37° E 23:06:18 10° NNE
CENTAUR R/B 3.2 22:55:17 10° NW 23:02:59 82° SW 23:11:28 10° SE
Cosmos 1461 3.5 23:00:53 10° SSW 23:05:23 47° SE 23:10:00 10° NE
Iridium 67 2.9 23:04:12 10° N 23:05:44 44° E 23:06:52 15° SSE
SL-27 R/B 2.6 23:02:52 10° NNW 23:06:32 71° ENE 23:10:03 11° SSE
Cosmos 1833 Rocket 2.8 23:00:55 10° NNW 23:06:34 81° WSW 23:12:11 10° SSE
Cosmos 2082 Rocket 2.3 23:01:46 10° NNW 23:07:32 88° WSW 23:13:15 10° SSE
NOSS 2-2 (E) 4.3 23:06:16 10° S 23:09:45 30° ESE 23:13:52 10° ENE
CZ-2C R/B 3.4 23:06:18 10° NNE 23:11:20 36° E 23:16:13 10° SSE
NOSS 3-4 (A) 3.7 23:06:56 10° SSW 23:12:51 49° SE 23:19:06 10° NE
NOSS 3-4 (C) 3.7 23:07:01 10° SSW 23:12:56 49° SE 23:19:12 10° NE
ERS-1 Rocket 4.4 23:09:09 10° SSW 23:13:40 33° W 23:18:14 10° NNW
Terra 2.0 23:10:33 10° S 23:15:19 77° WSW 23:20:07 10° NNW
Cosmos 405 Rocket 4.1 23:12:06 10° N 23:15:19 27° ENE 23:18:32 10° SE
DMSP B5D2-2 4.4 23:12:38 10° NNE 23:17:53 72° WNW 23:23:05 10° SSW
IGS 5A 3.9 23:14:56 10° S 23:19:02 58° WSW 23:23:10 10° NNW
SL-14 R/B 3.5 23:15:57 10° SSW 23:19:50 74° W 23:23:51 10° N
SL-8 R/B 4.1 23:16:36 10° WSW 23:21:09 42° S 23:25:44 10° E
Cosmos 220 Rocket 4.3 23:18:29 10° SW 23:22:41 67° WNW 23:26:55 10° NNE
Cosmos 1992 Rocket 4.2 23:20:06 10° NNW 23:25:18 68° WSW 23:30:15 11° SSE
Cosmos 1626 2.1 23:26:58 10° S 23:30:42 81° E 23:34:27 10° NNE
Cosmos 2251 Rocket 3.8 23:26:10 10° SSW 23:31:30 76° WNW 23:36:51 10° NNE
Cosmos 1709 Rocket 4.3 23:29:48 10° NNW 23:36:00 66° W 23:42:04 10° S
NOSS 2-2 (D) 3.8 23:36:54 10° SSW 23:40:41 44° SE 23:45:09 10° NE
Helios 1B rocket 2.9 23:40:28 10° N 23:44:33 63° WNW 23:48:36 10° SSW
Cosmos 1151 Rocket 3.6 23:40:28 10° N 23:44:37 45° ENE 23:48:06 14° SE
Cosmos 1703 3.4 23:41:19 13° S 23:44:39 57° E 23:48:30 10° NNE
Cosmos 1076 Rocket 3.6 23:40:31 10° SSW 23:44:46 80° WNW 23:49:02 10° N
ATLAS 3B R/B 4.4 23:42:03 10° WNW 23:46:25 19° WSW 23:50:46 10° SSW
Spot 4 3.9 23:43:29 13° SSE 23:47:48 89° ENE 23:52:43 10° NNW
Mayak 0.5 23:45:22 10° NE 23:48:27 20° E 23:51:01 12° SE
BREEZE-M DEB (TANK) 2.6 23:45:26 10° WSW 23:49:37 38° S 23:51:51 10° ESE
Cosmos 2074 Rocket 4.1 23:44:13 10° N 23:50:31 77° ENE 23:56:04 14° SSE
Cosmos 1869 4.1 23:49:32 10° N 23:53:22 41° ENE 23:56:30 14° SE
Cosmos 1455 2.4 23:51:42 10° NNW 23:55:29 68° W 23:58:34 15° S
Meteor 1-29 3.7 23:53:13 10° N 23:56:33 51° WNW 23:59:50 10° SSW
